User: anonymous   Login
Location: Unspecified
(0.0000°N, 0.0000°E)
Time: 18:14:58
(UTC+00:00)
Language:

S-NET D - Orbit

View from above orbital plane
View from above orbital plane
View from above satellite
View from above satellite

Ground track
Ground track

The orbit data is extracted from the following two-line orbital elements,

1 43186U 18014G   23333.69256799  .00008240  00000-0  63159-3 0  9994
2 43186  97.5999 234.2528 0011596 334.0485  26.0157 15.02033354318387
Epoch (UTC): 29 November 2023 16:37:17
Eccentricity: 0.0011596
inclination: 97.5999°
perigee height: 552 km
apogee height: 568 km
right ascension of ascending node: 234.2528°
argument of perigee: 334.0485°
revolutions per day: 15.02033354
mean anomaly at epoch: 26.0157°
orbit number at epoch: 31838

The dashed part of the orbit path shows where the satellite is in the earth's shadow,  

DLR